Kiev/Boryspil International Airport

Airport
ICAO code: 
UKBB
IATA Code: 
KBP
Summary
ICAO Region: 
EUR
Territory: 
Location: 
Boryspil,
Serving: 
Kiev
Elevation: 
427 ft
Coordinates: 
Aerial View: 
50° 20' 42" N, 30° 53' 36" E
Metar
Observation
UKBB 040130Z 25003MPS CAVOK M03/M05 Q1012 NOSIG
Station
Boryspil
Date/Time
2021-12-04 01:30:00
Wind direction
250°
Lowest cloud amount
clouds and visibility OK
Temperature
-3°C
Dew point
-5°C
Humidity
86%
QNH
1012 hPa
Weather condition
n/a

Description

International airport serving Ukrainian capital city.

Climatology

Humid Continental climate (Köppen climate classification Dfb) - Variable weather patterns and a large seasonal temperature variance. Summers are often warm and humid with frequent thunderstorms and winters can be very cold with frequent snowfall and persistent snow cover.

Runways

Designator Length Width Surface Rops
18R/36L 3500 63 CON Yes/Yes
18L/36R 4000 60 CON Yes/Yes
Airport map: 
Aerial View: 

SKYbrary Partners:

Safety knowledge contributed by: